Skip Page Navigation
NASA JPL Caltech
NASA Logo - Jet Propulsion Laboratory + View the NASA Portal
+ Center for Near-Earth Object Studies
JPL Home Earth Solar System Stars & Galaxies Technology
JPL Solar System Dynamics
BODIES ORBITS EPHEMERIDES TOOLS PHYSICAL DATA DISCOVERY FAQ SITE MAP
IMPORTANT: The SSD Announcement email list is now available. Major changes are coming in the near future, including possible hostname and/or URL changes. To be notified of such changes, subscribe to this email list.

Please visit this page for more details.


JPL Small-Body Database Browser
Search: [ help ]  
154988 (2004 XN35)
Classification: Apollo [NEO]          SPK-ID: 2154988
Ephemeris | Orbit Diagram | Orbital Elements | Mission Design | Physical Parameters | Discovery Circumstances | Close-Approach Data ]

[ show orbit diagram ]
Orbital Elements at Epoch 2459000.5 (2020-May-31.0) TDB
Reference: JPL 88 (heliocentric ecliptic J2000)
 Element Value Uncertainty (1-sigma)   Units 
e .6800226678069574 4.4583e-08  
a 1.505725737554136 4.1541e-09 au
q .481798104516974 6.7331e-08 au
i 9.816998449514596 6.2926e-06 deg
node 132.985401094964 3.1137e-05 deg
peri 189.9592993207565 3.1769e-05 deg
M 164.3397265616261 1.1301e-05 deg
tp 2458692.424404233800
(2019-Jul-27.92440423)
2.0082e-05 TDB
period 674.8655166725179
1.85
2.7928e-06
7.646e-09
d
yr
n .5334396129394946 2.2075e-09 deg/d
Q 2.529653370591299 6.9789e-09 au
  Orbit Determination Parameters
   # obs. used (total)      327  
   data-arc span      8034 days (22.00 yr)  
   first obs. used      1998-01-26  
   last obs. used      2020-01-25  
   planetary ephem.      DE431  
   SB-pert. ephem.      SB431-N16  
   condition code      0  
   norm. resid. RMS      .5365  
   source      ORB  
   producer      Otto Matic  
   solution date      2020-Jan-26 06:00:34  

Additional Information
 Earth MOID = .152461 au 
 Jupiter MOID = 2.82641 au 
 T_jup = 4.233 
[ show covariance matrix ]

Ephemeris | Orbit Diagram | Orbital Elements | Mission Design | Physical Parameters | Discovery Circumstances | Close-Approach Data ]

Physical Parameter Table
Parameter Symbol Value Units Sigma Reference Notes
absolute magnitude H 18.3   n/a MPO432990  

154988 (2004 XN35)          Discovered 2004-Dec-12 by CSS at Catalina
Reference: 20070402/Numbers.arcLast Updated: 2007-04-04

[ hide close-approach data ]
Close-Approach Data   ...sorted by Date/Time (TDB)
Date/Time (TDB) Time Uncertainty
(days_HH:MM)
Body Nominal Distance (au) Minimum Distance (au) Maximum Distance (au) V-relative (km/s) V-infinity (km/s) JD (TDB) Time Uncertainty (minutes) Semi-major axis (km) Semi-minor axis (km) range-LOV angle (deg) N-sigma BP Orbit Ref. Reference Modified
1901-Apr-26 00:04 < 00:01 Venus 0.112800374043557 0.112798698054188 0.112802050114179 19.9688025417622 19.9678384533404 2415500.502783214 0.42243243603261 173.89115330724 11.7755516217076 -61.5135694363594 1274422.41543159 T 88 CATAB v2.0f-lin.ifort 2020-Jan-26 06:00:47 2020-Jan-26 06:01
1903-Mar-01 23:16 < 00:01 Venus 0.108400616060036 0.108399325996583 0.108401906194351 20.4074704231285 20.4064887690733 2416175.469514647 0.352021043322784 154.620058713424 11.8187837433671 -65.7822388882271 1261967.76466843 T 88 CATAB v2.0f-lin.ifort 2020-Jan-26 06:00:47 2020-Jan-26 06:01
1905-Jan-04 19:48 < 00:01 Venus 0.104550262366404 0.104549309947326 0.104551214846855 20.8394015133406 20.8384048030041 2416850.325241507 0.298605676164845 138.82561079751 11.8525441199639 -70.5776123771832 1250566.21629349 T 88 CATAB v2.0f-lin.ifort 2020-Jan-26 06:00:47 2020-Jan-26 06:01
1906-Nov-10 08:26 < 00:01 Venus 0.102710463651988 0.102709712617202 0.102711214738262 21.102181279353 21.1011793497311 2417524.851604047 0.264297520901334 126.571892641719 11.8678900821822 -73.6256657532139 1245712.23426613 T 88 CATAB v2.0f-lin.ifort 2020-Jan-26 06:00:47 2020-Jan-26 06:01
1906-Dec-02 04:55 < 00:01 Earth 0.160581495459155 0.160580779820031 0.160582211121838 23.6405058638321 23.6398039778961 2417546.704891182 0.144056064002787 111.925483350396 14.4544758341454 72.9043837287868 1570333.14478867 T 88 CATAB v2.0f-lin.ifort 2020-Jan-26 06:00:47 2020-Jan-26 06:01
1908-Sep-15 06:34 < 00:01 Venus 0.100551843675509 0.100551324767789 0.100552362626725 21.584178881596 21.5831782978529 2418199.773415715 0.238855242830832 120.186110634169 11.8696528767234 -78.914129025998 1242980.6895381 T 88 CATAB v2.0f-lin.ifort 2020-Jan-26 06:00:47 2020-Jan-26 06:01
1910-May-06 08:03 < 00:01 Earth 0.244522328785938 0.244520704774728 0.24452395280628 17.0895996330296 17.0889620011135 2418797.835532084 0.199973350692873 111.173581997064 16.8268154041023 43.8731799906298 1652390.57485362 T 88 CATAB v2.0f-lin.ifort 2020-Jan-26 06:00:47 2020-Jan-26 06:01
1910-Jul-22 00:54 < 00:01 Venus 0.0987315136557708 0.0987312039051224 0.0987318234293284 22.0573826553308 22.0563854858231 2418874.537663313 0.224243829274955 117.958832695315 11.8515477197963 -85.1568702715342 1236689.63701751 T 88 CATAB v2.0f-lin.ifort 2020-Jan-26 06:00:47 2020-Jan-26 06:01
1912-May-26 16:42 < 00:01 Venus 0.0982839141439265 0.0982836769196964 0.098284151368218 22.4595442635879 22.4585604901921 2419549.195574045 0.221591855711934 120.423348049409 11.8226888850195 89.8108274050537 1235428.86548129 T 88 CATAB v2.0f-lin.ifort 2020-Jan-26 06:00:47 2020-Jan-26 06:01
1914-Apr-01 13:06 < 00:01 Venus 0.0988762364427014 0.0988758601730757 0.0988766127517096 23.0005293938505 22.9995745151607 2420224.045901582 0.225840773471815 127.830771034068 11.7830928673902 83.4132042506516 1235305.20095604 T 88 CATAB v2.0f-lin.ifort 2020-Jan-26 06:00:47 2020-Jan-26 06:01
1916-Feb-05 13:06 < 00:01 Venus 0.101474099292582 0.101473343277425 0.101474855372856 23.7035150032798 23.702612166467 2420899.045782233 0.235905231088851 140.065558646822 11.7415766591756 75.1275400545712 1233652.05510082 T 88 CATAB v2.0f-lin.ifort 2020-Jan-26 06:00:47 2020-Jan-26 06:01
1917-Dec-11 10:49 < 00:01 Venus 0.105924372144844 0.105923163382059 0.105925580983098 24.3835954648563 24.3827546840475 2421573.950539058 0.252126413429848 155.858252221416 11.7077500131602 67.6388004223862 1232352.33966892 T 88 CATAB v2.0f-lin.ifort 2020-Jan-26 06:00:47 2020-Jan-26 06:01
1919-Oct-17 10:11 < 00:01 Venus 0.112202143754979 0.112200439072931 0.112203848518238 25.1052448289695 25.1044739077531 2422248.924435016 0.271482959144599 174.134076696173 11.6800954720764 61.0123152012329 1234853.49676167 T 88 CATAB v2.0f-lin.ifort 2020-Jan-26 06:00:47 2020-Jan-26 06:01
1919-Oct-18 18:09 < 00:01 Earth 0.403276450029323 0.403274780001642 0.403278120059594 15.8624538711109 15.8620373425122 2422250.256094750 0.755649669276363 97.8809742142451 12.0938164759852 -31.9831870936939 1790452.81606532 T 88 CATAB v2.0f-lin.ifort 2020-Jan-26 06:00:47 2020-Jan-26 06:01
1921-Aug-22 19:18 < 00:01 Venus 0.125574602831945 0.125572182117984 0.12557702361823 26.2545981979798 26.2539395290103 2422924.304350873 0.286618908986833 193.307386792597 11.6434467274586 51.4887101814561 1236476.02648749 T 88 CATAB v2.0f-lin.ifort 2020-Jan-26 06:00:47 2020-Jan-26 06:01
1923-Apr-15 14:07 < 00:01 Earth 0.285892068181919 0.285889196341625 0.285894940040267 29.1760993164453 29.1757798793125 2423525.088266189 0.237099904463931 183.026583335018 15.7627248931743 -38.686224503632 1656224.93006517 T 88 CATAB v2.0f-lin.ifort 2020-Jan-26 06:00:47 2020-Jan-26 06:01
1923-Jun-28 21:35 < 00:01 Venus 0.139151238892749 0.139148245540142 0.139154232309124 27.2231124110323 27.222539154959 2423599.399305258 0.302279965072018 210.907970124886 11.6248049602113 45.0366585800665 1238612.54185283 T 88 CATAB v2.0f-lin.ifort 2020-Jan-26 06:00:47 2020-Jan-26 06:01
1930-Dec-09 06:01 < 00:01 Earth 0.24709932371489 0.247095928398846 0.247102719059799 28.1982324413517 28.1978500378516 2426319.751025906 0.282702192443937 215.690254510748 13.8951502365711 38.3765219592451 1611018.29455854 T 88 CATAB v2.0f-lin.ifort 2020-Jan-26 06:00:47 2020-Jan-26 06:01
1934-Jun-02 19:21 00:01 Earth 0.384177311604835 0.384174355906264 0.38418026731677 15.2392145554614 15.238759436903 2427591.306268472 1.25748816221001 185.952322508867 12.5574892954603 37.6754481324503 1918062.98738906 T 88 CATAB v2.0f-lin.ifort 2020-Jan-26 06:00:47 2020-Jan-26 06:01
1943-Nov-25 01:25 < 00:01 Earth 0.193770816056062 0.193768286151448 0.193773346021301 18.7459607303857 18.7452271887274 2431053.558800136 0.313704523094164 213.317421055911 14.1927004071066 -53.915122232962 1734493.87099127 T 88 CATAB v2.0f-lin.ifort 2020-Jan-26 06:00:47 2020-Jan-26 06:01
1947-Apr-29 20:22 < 00:01 Earth 0.179192287157929 0.179190918527306 0.179193655872168 20.6397197133249 20.6389992749657 2432305.348405817 0.306377644573837 210.222249012022 16.3795301296063 71.5698986152054 1575673.51155126 T 88 CATAB v2.0f-lin.ifort 2020-Jan-26 06:00:47 2020-Jan-26 06:01
1956-Sep-16 01:18 < 00:01 Mercury 0.0898380345076714 0.0898359360411104 0.0898401330636865 17.4688174062962 17.4687235633588 2435732.554060458 0.316723147128875 176.257566596618 8.48378260745293 -53.6705715197606 1281256.69122615 T 88 CATAB v2.0f-lin.ifort 2020-Jan-26 06:00:47 2020-Jan-26 06:01
1956-Oct-12 06:44 < 00:01 Earth 0.423252296727939 0.423250555852355 0.423254037607684 17.3069217960758 17.3065580504613 2435758.780620830 0.774471162927382 109.457020186607 11.5485663202175 -37.7768203206677 2370483.05238561 T 88 CATAB v2.0f-lin.ifort 2020-Jan-26 06:00:47 2020-Jan-26 06:01
1958-Jul-12 12:04 < 00:01 Earth 0.498406790358039 0.498405973191053 0.498407607527574 23.6739512782225 23.6737254596135 2436397.002611415 0.520850537632999 70.6660448767705 8.98102331331208 55.4561266120472 5440945.87949686 T 88 CATAB v2.0f-lin.ifort 2020-Jan-26 06:00:47 2020-Jan-26 06:01
1960-Apr-13 23:23 < 00:01 Earth 0.306204082717148 0.306201193575032 0.306206971873328 29.9493802892519 29.9490897427534 2437038.474102542 0.228777633085007 177.776032959741 15.607649188187 -36.0260018833395 1687030.29099902 T 88 CATAB v2.0f-lin.ifort 2020-Jan-26 06:00:47 2020-Jan-26 06:01
